Year,Month,Day,Hour,Minute,Value (Times are PST for temperature in C)
2007,07,05,00,00,15.30
2007,07,05,00,01,15.30
2007,07,05,00,02,15.30
2007,07,05,00,03,15.30
2007,07,05,00,04,15.30
2007,07,05,00,05,15.30
2007,07,05,00,06,15.30
2007,07,05,00,07,15.30
2007,07,05,00,08,15.20
2007,07,05,00,09,15.20
2007,07,05,00,10,15.20
2007,07,05,00,11,15.20
2007,07,05,00,12,15.20
2007,07,05,00,13,15.20
2007,07,05,00,14,15.20
2007,07,05,00,15,15.20
2007,07,05,00,16,15.10
2007,07,05,00,17,15.10
2007,07,05,00,18,15.10
2007,07,05,00,19,15.10
2007,07,05,00,20,15.10
2007,07,05,00,21,15.10
2007,07,05,00,22,15.10
2007,07,05,00,23,15.00
2007,07,05,00,24,15.00
2007,07,05,00,25,15.00
2007,07,05,00,26,15.00
2007,07,05,00,27,15.00
2007,07,05,00,28,15.00
2007,07,05,00,29,14.90
2007,07,05,00,30,14.90
2007,07,05,00,31,14.90
2007,07,05,00,32,14.90
2007,07,05,00,33,14.80
2007,07,05,00,34,14.80
2007,07,05,00,35,14.80
2007,07,05,00,36,14.80
2007,07,05,00,37,14.80
2007,07,05,00,38,14.80
2007,07,05,00,39,14.80
2007,07,05,00,40,14.80
2007,07,05,00,41,14.80
2007,07,05,00,42,14.80
2007,07,05,00,43,14.80
2007,07,05,00,44,14.80
2007,07,05,00,45,14.70
2007,07,05,00,46,14.70
2007,07,05,00,47,14.70
2007,07,05,00,48,14.70
2007,07,05,00,49,14.70
2007,07,05,00,50,14.70
2007,07,05,00,51,14.70
2007,07,05,00,52,14.70
2007,07,05,00,53,14.70
2007,07,05,00,54,14.70
2007,07,05,00,55,14.70
2007,07,05,00,56,14.70
2007,07,05,00,57,14.70
2007,07,05,00,58,14.70
2007,07,05,00,59,14.70
2007,07,05,01,00,14.70
2007,07,05,01,01,14.60
2007,07,05,01,02,14.60
2007,07,05,01,03,14.60
2007,07,05,01,04,14.60
2007,07,05,01,05,14.60
2007,07,05,01,06,14.60
2007,07,05,01,07,14.60
2007,07,05,01,08,14.60
2007,07,05,01,09,14.60
2007,07,05,01,10,14.60
2007,07,05,01,11,14.50
2007,07,05,01,12,14.50
2007,07,05,01,13,14.50
2007,07,05,01,14,14.50
2007,07,05,01,15,14.50
2007,07,05,01,16,14.50
2007,07,05,01,17,14.40
2007,07,05,01,18,14.40
2007,07,05,01,19,14.40
2007,07,05,01,20,14.30
2007,07,05,01,21,14.30
2007,07,05,01,22,14.30
2007,07,05,01,23,14.30
2007,07,05,01,24,14.20
2007,07,05,01,25,14.20
2007,07,05,01,26,14.20
2007,07,05,01,27,14.20
2007,07,05,01,28,14.20
2007,07,05,01,29,14.20
2007,07,05,01,30,14.20
2007,07,05,01,31,14.20
2007,07,05,01,32,14.20
2007,07,05,01,33,14.20
2007,07,05,01,34,14.20
2007,07,05,01,35,14.20
2007,07,05,01,36,14.20
2007,07,05,01,37,14.20
2007,07,05,01,38,14.20
2007,07,05,01,39,14.20
2007,07,05,01,40,14.20
2007,07,05,01,41,14.20
2007,07,05,01,42,14.20
2007,07,05,01,43,14.20
2007,07,05,01,44,14.20
2007,07,05,01,45,14.10
2007,07,05,01,46,14.10
2007,07,05,01,47,14.10
2007,07,05,01,48,14.10
2007,07,05,01,49,14.10
2007,07,05,01,50,14.10
2007,07,05,01,51,14.10
2007,07,05,01,52,14.10
2007,07,05,01,53,14.10
2007,07,05,01,54,14.10
2007,07,05,01,55,14.10
2007,07,05,01,56,14.00
2007,07,05,01,57,14.00
2007,07,05,01,58,14.00
2007,07,05,01,59,14.00
2007,07,05,02,00,14.00
2007,07,05,02,01,14.00
2007,07,05,02,02,14.00
2007,07,05,02,03,14.00
2007,07,05,02,04,14.00
2007,07,05,02,05,14.00
2007,07,05,02,06,14.00
2007,07,05,02,07,14.00
2007,07,05,02,08,14.00
2007,07,05,02,09,14.00
2007,07,05,02,10,14.00
2007,07,05,02,11,14.00
2007,07,05,02,12,14.00
2007,07,05,02,13,14.00
2007,07,05,02,14,14.00
2007,07,05,02,15,14.00
2007,07,05,02,16,14.00
2007,07,05,02,17,14.00
2007,07,05,02,18,14.00
2007,07,05,02,19,14.00
2007,07,05,02,20,14.00
2007,07,05,02,21,14.00
2007,07,05,02,22,14.00
2007,07,05,02,23,14.00
2007,07,05,02,24,14.00
2007,07,05,02,25,14.00
2007,07,05,02,26,14.00
2007,07,05,02,27,14.00
2007,07,05,02,28,14.00
2007,07,05,02,29,14.00
2007,07,05,02,30,14.00
2007,07,05,02,31,14.00
2007,07,05,02,32,14.00
2007,07,05,02,33,14.00
2007,07,05,02,34,14.00
2007,07,05,02,35,14.00
2007,07,05,02,36,14.00
2007,07,05,02,37,14.00
2007,07,05,02,38,14.00
2007,07,05,02,39,14.00
2007,07,05,02,40,14.00
2007,07,05,02,41,14.00
2007,07,05,02,42,13.90
2007,07,05,02,43,13.90
2007,07,05,02,44,13.90
2007,07,05,02,45,13.90
2007,07,05,02,46,13.90
2007,07,05,02,47,13.90
2007,07,05,02,48,13.90
2007,07,05,02,49,13.90
2007,07,05,02,50,13.90
2007,07,05,02,51,13.90
2007,07,05,02,52,13.90
2007,07,05,02,53,13.90
2007,07,05,02,54,13.90
2007,07,05,02,55,13.80
2007,07,05,02,56,13.80
2007,07,05,02,57,13.80
2007,07,05,02,58,13.80
2007,07,05,02,59,13.80
2007,07,05,03,00,13.80
2007,07,05,03,01,13.80
2007,07,05,03,02,13.80
2007,07,05,03,03,13.80
2007,07,05,03,04,13.80
2007,07,05,03,05,13.80
2007,07,05,03,06,13.80
2007,07,05,03,07,13.70
2007,07,05,03,08,13.70
2007,07,05,03,09,13.70
2007,07,05,03,10,13.70
2007,07,05,03,11,13.70
2007,07,05,03,12,13.70
2007,07,05,03,13,13.70
2007,07,05,03,14,13.70
2007,07,05,03,15,13.70
2007,07,05,03,16,13.70
2007,07,05,03,17,13.70
2007,07,05,03,18,13.70
2007,07,05,03,19,13.70
2007,07,05,03,20,13.70
2007,07,05,03,21,13.70
2007,07,05,03,22,13.60
2007,07,05,03,23,13.60
2007,07,05,03,24,13.60
2007,07,05,03,25,13.60
2007,07,05,03,26,13.60
2007,07,05,03,27,13.50
2007,07,05,03,28,13.50
2007,07,05,03,29,13.50
2007,07,05,03,30,13.50
2007,07,05,03,31,13.50
2007,07,05,03,32,13.50
2007,07,05,03,33,13.40
2007,07,05,03,34,13.40
2007,07,05,03,35,13.40
2007,07,05,03,36,13.40
2007,07,05,03,37,13.40
2007,07,05,03,38,13.40
2007,07,05,03,39,13.40
2007,07,05,03,40,13.40
2007,07,05,03,41,13.40
2007,07,05,03,42,13.30
2007,07,05,03,43,13.30
2007,07,05,03,44,13.30
2007,07,05,03,45,13.30
2007,07,05,03,46,13.30
2007,07,05,03,47,13.30
2007,07,05,03,48,13.30
2007,07,05,03,49,13.30
2007,07,05,03,50,13.30
2007,07,05,03,51,13.30
2007,07,05,03,52,13.30
2007,07,05,03,53,13.30
2007,07,05,03,54,13.30
2007,07,05,03,55,13.30
2007,07,05,03,56,13.30
2007,07,05,03,57,13.30
2007,07,05,03,58,13.30
2007,07,05,03,59,13.30
2007,07,05,04,00,13.30
2007,07,05,04,01,13.20
2007,07,05,04,02,13.20
2007,07,05,04,03,13.20
2007,07,05,04,04,13.20
2007,07,05,04,05,13.20
2007,07,05,04,06,13.20
2007,07,05,04,07,13.20
2007,07,05,04,08,13.20
2007,07,05,04,09,13.20
2007,07,05,04,10,13.20
2007,07,05,04,11,13.20
2007,07,05,04,12,13.20
2007,07,05,04,13,13.20
2007,07,05,04,14,13.20
2007,07,05,04,15,13.20
2007,07,05,04,16,13.20
2007,07,05,04,17,13.20
2007,07,05,04,18,13.20
2007,07,05,04,19,13.10
2007,07,05,04,20,13.10
2007,07,05,04,21,13.10
2007,07,05,04,22,13.10
2007,07,05,04,23,13.10
2007,07,05,04,24,13.10
2007,07,05,04,25,13.10
2007,07,05,04,26,13.00
2007,07,05,04,27,13.00
2007,07,05,04,28,13.00
2007,07,05,04,29,13.00
2007,07,05,04,30,13.00
2007,07,05,04,31,12.90
2007,07,05,04,32,12.90
2007,07,05,04,33,12.90
2007,07,05,04,34,12.90
2007,07,05,04,35,12.90
2007,07,05,04,36,12.90
2007,07,05,04,37,12.80
2007,07,05,04,38,12.80
2007,07,05,04,39,12.80
2007,07,05,04,40,12.80
2007,07,05,04,41,12.80
2007,07,05,04,42,12.80
2007,07,05,04,43,12.80
2007,07,05,04,44,12.80
2007,07,05,04,45,12.70
2007,07,05,04,46,12.70
2007,07,05,04,47,12.70
2007,07,05,04,48,12.70
2007,07,05,04,49,12.70
2007,07,05,04,50,12.60
2007,07,05,04,51,12.60
2007,07,05,04,52,12.60
2007,07,05,04,53,12.60
2007,07,05,04,54,12.60
2007,07,05,04,55,12.60
2007,07,05,04,56,12.60
2007,07,05,04,57,12.60
2007,07,05,04,58,12.60
2007,07,05,04,59,12.50
2007,07,05,05,00,12.50
2007,07,05,05,01,12.50
2007,07,05,05,02,12.50
2007,07,05,05,03,12.50
2007,07,05,05,04,12.50
2007,07,05,05,05,12.40
2007,07,05,05,06,12.40
2007,07,05,05,07,12.40
2007,07,05,05,08,12.40
2007,07,05,05,09,12.40
2007,07,05,05,10,12.30
2007,07,05,05,11,12.30
2007,07,05,05,12,12.30
2007,07,05,05,13,12.30
2007,07,05,05,14,12.30
2007,07,05,05,15,12.30
2007,07,05,05,16,12.30
2007,07,05,05,17,12.30
2007,07,05,05,18,12.30
2007,07,05,05,19,12.30
2007,07,05,05,20,12.30
2007,07,05,05,21,12.30
2007,07,05,05,22,12.30
2007,07,05,05,23,12.30
2007,07,05,05,24,12.30
2007,07,05,05,25,12.30
2007,07,05,05,26,12.30
2007,07,05,05,27,12.30
2007,07,05,05,28,12.40
2007,07,05,05,29,12.40
2007,07,05,05,30,12.40
2007,07,05,05,31,12.40
2007,07,05,05,32,12.50
2007,07,05,05,33,12.50
2007,07,05,05,34,12.50
2007,07,05,05,35,12.50
2007,07,05,05,36,12.60
2007,07,05,05,37,12.60
2007,07,05,05,38,12.60
2007,07,05,05,39,12.60
2007,07,05,05,40,12.70
2007,07,05,05,41,12.70
2007,07,05,05,42,12.70
2007,07,05,05,43,12.70
2007,07,05,05,44,12.70
2007,07,05,05,45,12.70
2007,07,05,05,46,12.70
2007,07,05,05,47,12.60
2007,07,05,05,48,12.60
2007,07,05,05,49,12.60
2007,07,05,05,50,12.60
2007,07,05,05,51,12.60
2007,07,05,05,52,12.60
2007,07,05,05,53,12.60
2007,07,05,05,54,12.60
2007,07,05,05,55,12.70
2007,07,05,05,56,12.70
2007,07,05,05,57,12.70
2007,07,05,05,58,12.70
2007,07,05,05,59,12.70
2007,07,05,06,00,12.80
2007,07,05,06,01,12.80
2007,07,05,06,02,12.80
2007,07,05,06,03,12.80
2007,07,05,06,04,12.90
2007,07,05,06,05,12.90
2007,07,05,06,06,13.00
2007,07,05,06,07,13.00
2007,07,05,06,08,13.00
2007,07,05,06,09,13.00
2007,07,05,06,10,13.10
2007,07,05,06,11,13.10
2007,07,05,06,12,13.10
2007,07,05,06,13,13.10
2007,07,05,06,14,13.10
2007,07,05,06,15,13.10
2007,07,05,06,16,13.20
2007,07,05,06,17,13.20
2007,07,05,06,18,13.20
2007,07,05,06,19,13.20
2007,07,05,06,20,13.30
2007,07,05,06,21,13.30
2007,07,05,06,22,13.30
2007,07,05,06,23,13.30
2007,07,05,06,24,13.30
2007,07,05,06,25,13.30
2007,07,05,06,26,13.40
2007,07,05,06,27,13.40
2007,07,05,06,28,13.40
2007,07,05,06,29,13.50
2007,07,05,06,30,13.50
2007,07,05,06,31,13.50
2007,07,05,06,32,13.50
2007,07,05,06,33,13.60
2007,07,05,06,34,13.60
2007,07,05,06,35,13.60
2007,07,05,06,36,13.60
2007,07,05,06,37,13.60
2007,07,05,06,38,13.70
2007,07,05,06,39,13.70
2007,07,05,06,40,13.70
2007,07,05,06,41,13.70
2007,07,05,06,42,13.70
2007,07,05,06,43,13.70
2007,07,05,06,44,13.70
2007,07,05,06,45,13.80
2007,07,05,06,46,13.80
2007,07,05,06,47,13.80
2007,07,05,06,48,13.80
2007,07,05,06,49,13.90
2007,07,05,06,50,13.90
2007,07,05,06,51,13.90
2007,07,05,06,52,14.00
2007,07,05,06,53,14.00
2007,07,05,06,54,14.00
2007,07,05,06,55,14.10
2007,07,05,06,56,14.10
2007,07,05,06,57,14.20
2007,07,05,06,58,14.20
2007,07,05,06,59,14.20
2007,07,05,07,00,14.20
2007,07,05,07,01,14.30
2007,07,05,07,02,14.30
2007,07,05,07,03,14.40
2007,07,05,07,04,14.40
2007,07,05,07,05,14.50
2007,07,05,07,06,14.50
2007,07,05,07,07,14.60
2007,07,05,07,08,14.60
2007,07,05,07,09,14.70
2007,07,05,07,10,14.70
2007,07,05,07,11,14.80
2007,07,05,07,12,14.80
2007,07,05,07,13,14.80
2007,07,05,07,14,14.90
2007,07,05,07,15,14.90
2007,07,05,07,16,15.00
2007,07,05,07,17,15.00
2007,07,05,07,18,15.10
2007,07,05,07,19,15.10
2007,07,05,07,20,15.10
2007,07,05,07,21,15.20
2007,07,05,07,22,15.20
2007,07,05,07,23,15.30
2007,07,05,07,24,15.30
2007,07,05,07,25,15.30
2007,07,05,07,26,15.30
2007,07,05,07,27,15.30
2007,07,05,07,28,15.40
2007,07,05,07,29,15.40
2007,07,05,07,30,15.50
2007,07,05,07,31,15.50
2007,07,05,07,32,15.50
2007,07,05,07,33,15.60
2007,07,05,07,34,15.60
2007,07,05,07,35,15.60
2007,07,05,07,36,15.70
2007,07,05,07,37,15.70
2007,07,05,07,38,15.70
2007,07,05,07,39,15.80
2007,07,05,07,40,15.80
2007,07,05,07,41,15.80
2007,07,05,07,42,15.80
2007,07,05,07,43,15.90
2007,07,05,07,44,15.90
2007,07,05,07,45,16.00
2007,07,05,07,46,16.10
2007,07,05,07,47,16.10
2007,07,05,07,48,16.10
2007,07,05,07,49,16.20
2007,07,05,07,50,16.20
2007,07,05,07,51,16.30
2007,07,05,07,52,16.30
2007,07,05,07,53,16.40
2007,07,05,07,54,16.40
2007,07,05,07,55,16.40
2007,07,05,07,56,16.40
2007,07,05,07,57,16.50
2007,07,05,07,58,16.60
2007,07,05,07,59,16.60
2007,07,05,08,00,16.70
2007,07,05,08,01,16.70
2007,07,05,08,02,16.70
2007,07,05,08,03,16.70
2007,07,05,08,04,16.70
2007,07,05,08,05,16.80
2007,07,05,08,06,16.80
2007,07,05,08,07,16.90
2007,07,05,08,08,17.00
2007,07,05,08,09,17.10
2007,07,05,08,10,17.20
2007,07,05,08,11,17.20
2007,07,05,08,12,17.30
2007,07,05,08,13,17.40
2007,07,05,08,14,17.50
2007,07,05,08,15,17.60
2007,07,05,08,16,17.70
2007,07,05,08,17,17.80
2007,07,05,08,18,17.90
2007,07,05,08,19,18.00
2007,07,05,08,20,18.10
2007,07,05,08,21,18.20
2007,07,05,08,22,18.20
2007,07,05,08,23,18.20
2007,07,05,08,24,18.30
2007,07,05,08,25,18.30
2007,07,05,08,26,18.40
2007,07,05,08,27,18.40
2007,07,05,08,28,18.50
2007,07,05,08,29,18.50
2007,07,05,08,30,18.60
2007,07,05,08,31,18.70
2007,07,05,08,32,18.80
2007,07,05,08,33,18.80
2007,07,05,08,34,18.90
2007,07,05,08,35,18.90
2007,07,05,08,36,18.90
2007,07,05,08,37,18.90
2007,07,05,08,38,18.90
2007,07,05,08,39,18.90
2007,07,05,08,40,19.10
2007,07,05,08,41,19.10
2007,07,05,08,42,19.10
2007,07,05,08,43,19.10
2007,07,05,08,44,19.20
2007,07,05,08,45,19.30
2007,07,05,08,46,19.20
2007,07,05,08,47,19.30
2007,07,05,08,48,19.30
2007,07,05,08,49,19.30
2007,07,05,08,50,19.30
2007,07,05,08,51,19.30
2007,07,05,08,52,19.30
2007,07,05,08,53,19.40
2007,07,05,08,54,19.40
2007,07,05,08,55,19.40
2007,07,05,08,56,19.40
2007,07,05,08,57,19.40
2007,07,05,08,58,19.30
2007,07,05,08,59,19.30
2007,07,05,09,00,19.30
2007,07,05,09,01,19.30
2007,07,05,09,02,19.30
2007,07,05,09,03,19.30
2007,07,05,09,04,19.30
2007,07,05,09,05,19.20
2007,07,05,09,06,19.20
2007,07,05,09,07,19.20
2007,07,05,09,08,19.30
2007,07,05,09,09,19.30
2007,07,05,09,10,19.40
2007,07,05,09,11,19.40
2007,07,05,09,12,19.50
2007,07,05,09,13,19.50
2007,07,05,09,14,19.50
2007,07,05,09,15,19.50
2007,07,05,09,16,19.60
2007,07,05,09,17,19.60
2007,07,05,09,18,19.60
2007,07,05,09,19,19.70
2007,07,05,09,20,19.70
2007,07,05,09,21,19.80
2007,07,05,09,22,19.80
2007,07,05,09,23,19.90
2007,07,05,09,24,20.00
2007,07,05,09,25,20.10
2007,07,05,09,26,20.20
2007,07,05,09,27,20.30
2007,07,05,09,28,20.40
2007,07,05,09,29,20.50
2007,07,05,09,30,20.60
2007,07,05,09,31,20.70
2007,07,05,09,32,20.70
2007,07,05,09,33,20.70
2007,07,05,09,34,20.70
2007,07,05,09,35,20.70
2007,07,05,09,36,20.70
2007,07,05,09,37,20.70
2007,07,05,09,38,20.70
2007,07,05,09,39,20.60
2007,07,05,09,40,20.70
2007,07,05,09,41,20.70
2007,07,05,09,42,20.70
2007,07,05,09,43,20.70
2007,07,05,09,44,20.70
2007,07,05,09,45,20.80
2007,07,05,09,46,20.90
2007,07,05,09,47,21.00
2007,07,05,09,48,21.00
2007,07,05,09,49,21.10
2007,07,05,09,50,21.10
2007,07,05,09,51,21.10
2007,07,05,09,52,21.10
2007,07,05,09,53,21.10
2007,07,05,09,54,21.10
2007,07,05,09,55,21.20
2007,07,05,09,56,21.20
2007,07,05,09,57,21.30
2007,07,05,09,58,21.30
2007,07,05,09,59,21.30
2007,07,05,10,00,21.30
2007,07,05,10,01,21.30
2007,07,05,10,02,21.40
2007,07,05,10,03,21.40
2007,07,05,10,04,21.60
2007,07,05,10,05,21.60
2007,07,05,10,06,21.60
2007,07,05,10,07,21.70
2007,07,05,10,08,21.70
2007,07,05,10,09,21.70
2007,07,05,10,10,21.70
2007,07,05,10,11,21.70
2007,07,05,10,12,21.80
2007,07,05,10,13,21.80
2007,07,05,10,14,21.80
2007,07,05,10,15,21.70
2007,07,05,10,16,21.60
2007,07,05,10,17,21.60
2007,07,05,10,18,21.70
2007,07,05,10,19,21.60
2007,07,05,10,20,21.60
2007,07,05,10,21,21.60
2007,07,05,10,22,21.60
2007,07,05,10,23,21.60
2007,07,05,10,24,21.70
2007,07,05,10,25,21.70
2007,07,05,10,26,21.80
2007,07,05,10,27,21.80
2007,07,05,10,28,21.80
2007,07,05,10,29,21.80
2007,07,05,10,30,21.70
2007,07,05,10,31,21.60
2007,07,05,10,32,21.60
2007,07,05,10,33,21.60
2007,07,05,10,34,21.60
2007,07,05,10,35,21.60
2007,07,05,10,36,21.60
2007,07,05,10,37,21.40
2007,07,05,10,38,21.40
2007,07,05,10,39,21.40
2007,07,05,10,40,21.40
2007,07,05,10,41,21.40
2007,07,05,10,42,21.50
2007,07,05,10,43,21.60
2007,07,05,10,44,21.60
2007,07,05,10,45,21.60
2007,07,05,10,46,21.60
2007,07,05,10,47,21.60
2007,07,05,10,48,21.70
2007,07,05,10,49,21.70
2007,07,05,10,50,21.70
2007,07,05,10,51,21.70
2007,07,05,10,52,21.80
2007,07,05,10,53,21.80
2007,07,05,10,54,21.90
2007,07,05,10,55,22.10
2007,07,05,10,56,22.20
2007,07,05,10,57,22.30
2007,07,05,10,58,22.50
2007,07,05,10,59,22.60
2007,07,05,11,00,22.50
2007,07,05,11,01,22.30
2007,07,05,11,02,22.20
2007,07,05,11,03,22.20
2007,07,05,11,04,22.20
2007,07,05,11,05,22.20
2007,07,05,11,06,22.30
2007,07,05,11,07,22.30
2007,07,05,11,08,22.30
2007,07,05,11,09,22.30
2007,07,05,11,10,22.30
2007,07,05,11,11,22.20
2007,07,05,11,12,22.20
2007,07,05,11,13,22.20
2007,07,05,11,14,22.00
2007,07,05,11,15,22.00
2007,07,05,11,16,21.80
2007,07,05,11,17,21.70
2007,07,05,11,18,21.70
2007,07,05,11,19,21.80
2007,07,05,11,20,21.90
2007,07,05,11,21,22.00
2007,07,05,11,22,22.00
2007,07,05,11,23,22.00
2007,07,05,11,24,22.00
2007,07,05,11,25,21.80
2007,07,05,11,26,21.70
2007,07,05,11,27,21.60
2007,07,05,11,28,21.60
2007,07,05,11,29,21.70
2007,07,05,11,30,21.80
2007,07,05,11,31,22.00
2007,07,05,11,32,22.00
2007,07,05,11,33,22.10
2007,07,05,11,34,22.10
2007,07,05,11,35,22.10
2007,07,05,11,36,22.10
2007,07,05,11,37,21.90
2007,07,05,11,38,22.00
2007,07,05,11,39,22.00
2007,07,05,11,40,22.10
2007,07,05,11,41,22.10
2007,07,05,11,42,22.10
2007,07,05,11,43,22.10
2007,07,05,11,44,22.10
2007,07,05,11,45,22.20
2007,07,05,11,46,22.30
2007,07,05,11,47,22.40
2007,07,05,11,48,22.50
2007,07,05,11,49,22.60
2007,07,05,11,50,22.80
2007,07,05,11,51,22.90
2007,07,05,11,52,22.90
2007,07,05,11,53,22.90
2007,07,05,11,54,22.90
2007,07,05,11,55,22.80
2007,07,05,11,56,22.80
2007,07,05,11,57,22.70
2007,07,05,11,58,22.70
2007,07,05,11,59,22.70
2007,07,05,12,00,22.70
2007,07,05,12,01,22.70
2007,07,05,12,02,22.70
2007,07,05,12,03,22.60
2007,07,05,12,04,22.60
2007,07,05,12,05,22.60
2007,07,05,12,06,22.60
2007,07,05,12,07,22.60
2007,07,05,12,08,22.50
2007,07,05,12,09,22.50
2007,07,05,12,10,22.60
2007,07,05,12,11,22.60
2007,07,05,12,12,22.60
2007,07,05,12,13,22.60
2007,07,05,12,14,22.70
2007,07,05,12,15,22.70
2007,07,05,12,16,22.60
2007,07,05,12,17,22.60
2007,07,05,12,18,22.60
2007,07,05,12,19,22.60
2007,07,05,12,20,22.70
2007,07,05,12,21,22.70
2007,07,05,12,22,22.70
2007,07,05,12,23,22.80
2007,07,05,12,24,22.80
2007,07,05,12,25,22.90
2007,07,05,12,26,22.90
2007,07,05,12,27,23.00
2007,07,05,12,28,23.10
2007,07,05,12,29,23.20
2007,07,05,12,30,23.20
2007,07,05,12,31,23.30
2007,07,05,12,32,23.30
2007,07,05,12,33,23.30
2007,07,05,12,34,23.30
2007,07,05,12,35,23.20
2007,07,05,12,36,23.10
2007,07,05,12,37,22.90
2007,07,05,12,38,22.70
2007,07,05,12,39,22.50
2007,07,05,12,40,22.40
2007,07,05,12,41,22.40
2007,07,05,12,42,22.40
2007,07,05,12,43,22.40
2007,07,05,12,44,22.40
2007,07,05,12,45,22.40
2007,07,05,12,46,22.40
2007,07,05,12,47,22.40
2007,07,05,12,48,22.50
2007,07,05,12,49,22.60
2007,07,05,12,50,22.70
2007,07,05,12,51,22.90
2007,07,05,12,52,23.00
2007,07,05,12,53,23.10
2007,07,05,12,54,23.20
2007,07,05,12,55,23.20
2007,07,05,12,56,23.30
2007,07,05,12,57,23.30
2007,07,05,12,58,23.30
2007,07,05,12,59,23.30
2007,07,05,13,00,23.30
2007,07,05,13,01,23.40
2007,07,05,13,02,23.60
2007,07,05,13,03,23.70
2007,07,05,13,04,23.70
2007,07,05,13,05,23.70
2007,07,05,13,06,23.70
2007,07,05,13,07,23.70
2007,07,05,13,08,23.80
2007,07,05,13,09,23.80
2007,07,05,13,10,23.80
2007,07,05,13,11,23.80
2007,07,05,13,12,23.90
2007,07,05,13,13,24.00
2007,07,05,13,14,24.10
2007,07,05,13,15,24.10
2007,07,05,13,16,24.20
2007,07,05,13,17,24.40
2007,07,05,13,18,24.50
2007,07,05,13,19,24.50
2007,07,05,13,20,24.50
2007,07,05,13,21,24.50
2007,07,05,13,22,24.60
2007,07,05,13,23,24.70
2007,07,05,13,24,24.70
2007,07,05,13,25,24.70
2007,07,05,13,26,24.80
2007,07,05,13,27,24.80
2007,07,05,13,28,24.90
2007,07,05,13,29,24.90
2007,07,05,13,30,24.90
2007,07,05,13,31,24.90
2007,07,05,13,32,24.90
2007,07,05,13,33,24.80
2007,07,05,13,34,24.80
2007,07,05,13,35,24.70
2007,07,05,13,36,24.60
2007,07,05,13,37,24.60
2007,07,05,13,38,24.60
2007,07,05,13,39,24.60
2007,07,05,13,40,24.70
2007,07,05,13,41,24.70
2007,07,05,13,42,24.70
2007,07,05,13,43,24.80
2007,07,05,13,44,24.80
2007,07,05,13,45,24.80
2007,07,05,13,46,24.90
2007,07,05,13,47,24.90
2007,07,05,13,48,25.00
2007,07,05,13,49,25.10
2007,07,05,13,50,25.20
2007,07,05,13,51,25.20
2007,07,05,13,52,25.20
2007,07,05,13,53,25.20
2007,07,05,13,54,25.20
2007,07,05,13,55,25.10
2007,07,05,13,56,25.10
2007,07,05,13,57,25.10
2007,07,05,13,58,25.00
2007,07,05,13,59,24.90
2007,07,05,14,00,24.80
2007,07,05,14,01,24.80
2007,07,05,14,02,24.80
2007,07,05,14,03,24.90
2007,07,05,14,04,24.80
2007,07,05,14,05,24.80
2007,07,05,14,06,24.90
2007,07,05,14,07,24.90
2007,07,05,14,08,24.80
2007,07,05,14,09,24.80
2007,07,05,14,10,24.90
2007,07,05,14,11,24.90
2007,07,05,14,12,25.00
2007,07,05,14,13,25.10
2007,07,05,14,14,25.10
2007,07,05,14,15,25.10
2007,07,05,14,16,25.10
2007,07,05,14,17,25.10
2007,07,05,14,18,25.10
2007,07,05,14,19,25.10
2007,07,05,14,20,25.20
2007,07,05,14,21,25.20
2007,07,05,14,22,25.40
2007,07,05,14,23,25.40
2007,07,05,14,24,25.50
2007,07,05,14,25,25.60
2007,07,05,14,26,25.80
2007,07,05,14,27,25.80
2007,07,05,14,28,25.90
2007,07,05,14,29,25.90
2007,07,05,14,30,25.90
2007,07,05,14,31,25.90
2007,07,05,14,32,25.90
2007,07,05,14,33,25.90
2007,07,05,14,34,25.90
2007,07,05,14,35,25.90
2007,07,05,14,36,26.00
2007,07,05,14,37,26.10
2007,07,05,14,38,26.10
2007,07,05,14,39,26.20
2007,07,05,14,40,26.20
2007,07,05,14,41,26.30
2007,07,05,14,42,26.30
2007,07,05,14,43,26.30
2007,07,05,14,44,26.40
2007,07,05,14,45,26.40
2007,07,05,14,46,26.40
2007,07,05,14,47,26.60
2007,07,05,14,48,26.60
2007,07,05,14,49,26.60
2007,07,05,14,50,26.50
2007,07,05,14,51,26.40
2007,07,05,14,52,26.60
2007,07,05,14,53,26.40
2007,07,05,14,54,26.40
2007,07,05,14,55,26.30
2007,07,05,14,56,26.30
2007,07,05,14,57,26.30
2007,07,05,14,58,26.20
2007,07,05,14,59,26.10
2007,07,05,15,00,26.10
2007,07,05,15,01,26.10
2007,07,05,15,02,26.10
2007,07,05,15,03,26.10
2007,07,05,15,04,26.10
2007,07,05,15,05,26.00
2007,07,05,15,06,26.00
2007,07,05,15,07,26.00
2007,07,05,15,08,26.00
2007,07,05,15,09,26.00
2007,07,05,15,10,25.90
2007,07,05,15,11,26.00
2007,07,05,15,12,26.10
2007,07,05,15,13,26.20
2007,07,05,15,14,26.30
2007,07,05,15,15,26.30
2007,07,05,15,16,26.20
2007,07,05,15,17,26.20
2007,07,05,15,18,26.10
2007,07,05,15,19,26.00
2007,07,05,15,20,26.00
2007,07,05,15,21,26.00
2007,07,05,15,22,26.00
2007,07,05,15,23,26.00
2007,07,05,15,24,26.00
2007,07,05,15,25,26.00
2007,07,05,15,26,26.10
2007,07,05,15,27,26.10
2007,07,05,15,28,26.10
2007,07,05,15,29,26.10
2007,07,05,15,30,26.10
2007,07,05,15,31,26.10
2007,07,05,15,32,26.10
2007,07,05,15,33,26.10
2007,07,05,15,34,26.00
2007,07,05,15,35,26.10
2007,07,05,15,36,26.10
2007,07,05,15,37,26.20
2007,07,05,15,38,26.20
2007,07,05,15,39,26.20
2007,07,05,15,40,26.30
2007,07,05,15,41,26.50
2007,07,05,15,42,26.60
2007,07,05,15,43,26.60
2007,07,05,15,44,26.70
2007,07,05,15,45,26.80
2007,07,05,15,46,26.80
2007,07,05,15,47,26.90
2007,07,05,15,48,26.90
2007,07,05,15,49,26.90
2007,07,05,15,50,26.90
2007,07,05,15,51,26.80
2007,07,05,15,52,26.90
2007,07,05,15,53,26.90
2007,07,05,15,54,26.90
2007,07,05,15,55,26.90
2007,07,05,15,56,27.00
2007,07,05,15,57,27.10
2007,07,05,15,58,27.10
2007,07,05,15,59,27.10
2007,07,05,16,00,27.20
2007,07,05,16,01,27.20
2007,07,05,16,02,27.10
2007,07,05,16,03,27.10
2007,07,05,16,04,27.20
2007,07,05,16,05,27.10
2007,07,05,16,06,27.10
2007,07,05,16,07,27.10
2007,07,05,16,08,27.10
2007,07,05,16,09,27.10
2007,07,05,16,10,27.00
2007,07,05,16,11,26.90
2007,07,05,16,12,27.00
2007,07,05,16,13,27.10
2007,07,05,16,14,27.10
2007,07,05,16,15,27.20
2007,07,05,16,16,27.20
2007,07,05,16,17,27.20
2007,07,05,16,18,27.20
2007,07,05,16,19,27.30
2007,07,05,16,20,27.30
2007,07,05,16,21,27.30
2007,07,05,16,22,27.20
2007,07,05,16,23,27.20
2007,07,05,16,24,27.30
2007,07,05,16,25,27.30
2007,07,05,16,26,27.30
2007,07,05,16,27,27.30
2007,07,05,16,28,27.20
2007,07,05,16,29,27.00
2007,07,05,16,30,26.90
2007,07,05,16,31,26.90
2007,07,05,16,32,26.80
2007,07,05,16,33,26.70
2007,07,05,16,34,26.60
2007,07,05,16,35,26.50
2007,07,05,16,36,26.30
2007,07,05,16,37,26.10
2007,07,05,16,38,25.90
2007,07,05,16,39,25.80
2007,07,05,16,40,25.70
2007,07,05,16,41,25.60
2007,07,05,16,42,25.50
2007,07,05,16,43,25.50
2007,07,05,16,44,25.40
2007,07,05,16,45,25.30
2007,07,05,16,46,25.30
2007,07,05,16,47,25.20
2007,07,05,16,48,25.20
2007,07,05,16,49,25.20
2007,07,05,16,50,25.10
2007,07,05,16,51,25.10
2007,07,05,16,52,25.10
2007,07,05,16,53,25.10
2007,07,05,16,54,25.10
2007,07,05,16,55,25.20
2007,07,05,16,56,25.20
2007,07,05,16,57,25.30
2007,07,05,16,58,25.30
2007,07,05,16,59,25.30
2007,07,05,17,00,25.40
2007,07,05,17,01,25.40
2007,07,05,17,02,25.50
2007,07,05,17,03,25.60
2007,07,05,17,04,25.60
2007,07,05,17,05,25.70
2007,07,05,17,06,25.70
2007,07,05,17,07,25.70
2007,07,05,17,08,25.70
2007,07,05,17,09,25.70
2007,07,05,17,10,25.80
2007,07,05,17,11,25.90
2007,07,05,17,12,25.90
2007,07,05,17,13,26.00
2007,07,05,17,14,26.00
2007,07,05,17,15,25.90
2007,07,05,17,16,25.90
2007,07,05,17,17,25.90
2007,07,05,17,18,26.00
2007,07,05,17,19,26.00